Theta_e
280 280 280 280 280 280 280 281 282 282 281 282 282 282 282 282 282 282 282 282 284 285
280 279 279 279 279 279 280 282 281 280 280 281 281 281 281 280 280 280 281 282 283 283
279 279 279 279 278 278 279 279 279 279 279 279 279 279 279 279 280 279 279 280 280 281
279 279 279 278 278 278 278 278 278 278 278 278 278 278 277 277 277 276 277 278 278 279
278 278 278 278 278 278 277 278 277 277 277 277 277 277 276 276 276 276 276 276 277 277
278 278 277 277 278 277 277 276 276 276 275 275 275 275 276 276 276 276 276 276 276 277
277 277 277 277 276 276 275 274 273 273 273 273 274 274 275 275 275 275 276 276 277 277
277 277 276 275 274 273 273 272 272 272 271 271 271 273 273 274 274 273 274 274 275 276
276 275 274 273 272 271 271 270 270 270 269 269 270 273 275 275 273 272 271 271 272 272
272 271 271 270 269 268 268 268 267 267 267 267 267 272 274 274 272 271 270 270 270 271
269 268 269 268 267 266 266 266 266 265 265 266 267 271 272 273 271 270 269 270 270 270
267 265 266 263 264 265 264 264 263 265 264 263 264 268 271 271 269 269 269 269 270 270
266 261 261 263 262 263 261 263 264 264 263 263 261 267 270 271 269 267 268 269 270 272
265 261 262 260 261 259 259 261 259 260 261 261 262 263 269 271 270 269 268 269 270 271
Wind_Speed
7 5 5 6 4 4 4 4 6 6 6 7 8 8 7 5 5 6 5 7 5 4
6 6 6 6 5 4 4 5 5 6 6 6 6 6 7 5 6 5 5 6 6 5
5 6 5 5 6 6 5 6 6 6 6 7 6 6 6 5 6 5 5 5 7 7
5 6 5 5 5 5 4 5 5 5 5 5 5 5 5 5 6 6 7 7 7 9
5 4 5 5 5 5 5 5 5 5 6 7 7 6 8 9 8 8 9 9 9 10
4 4 5 5 5 5 6 6 6 7 8 9 10 10 10 10 10 10 10 11 10 11
3 4 5 5 6 6 6 6 8 7 8 8 9 10 10 11 12 13 13 13 13 13
3 4 4 4 4 4 4 5 6 9 8 8 9 8 13 13 14 14 15 14 14 13
3 2 1 0 2 2 4 5 6 6 7 8 8 18 20 18 14 15 15 15 14 14
4 3 2 1 2 4 5 6 6 7 8 10 10 18 21 23 13 14 13 14 14 14
3 1 2 3 4 5 5 7 8 8 9 9 10 21 22 23 14 12 13 13 13 15
2 2 4 4 5 5 5 7 7 8 8 10 11 21 23 20 13 12 13 12 13 14
3 3 2 4 4 2 4 8 8 8 9 11 12 20 22 20 10 12 10 12 14 20
2 1 3 3 2 2 5 7 6 9 8 10 12 14 22 23 13 10 11 10 9 10
Wind_Direction
73 73 72 62 53 48 39 25 10 15 12 10 15 10 8 6 356 360 357 344 337 310
74 77 72 59 56 46 25 20 10 15 7 1 6 5 2 349 344 341 340 328 316 310
94 84 81 72 54 39 20 14 10 4 1 358 355 351 347 340 328 331 324 317 313 306
84 66 61 56 39 27 15 5 5 357 348 347 334 320 316 310 306 308 305 305 297 299
84 63 53 44 32 23 12 5 352 346 345 341 340 333 330 323 317 304 303 300 296 292
74 50 34 27 21 19 4 356 355 357 351 344 338 333 326 315 311 305 298 296 292 293
65 38 29 20 16 7 356 351 351 348 341 337 333 325 317 323 318 311 304 303 297 292
64 50 45 33 2 339 350 353 342 336 338 336 329 325 325 317 309 307 304 304 303 300
119 96 97 279 322 350 347 340 331 332 326 324 320 318 316 315 309 307 305 304 304 301
131 177 191 359 5 1 345 338 333 329 326 316 312 314 315 314 306 301 298 300 303 301
154 118 26 15 1 349 346 335 325 320 309 308 308 314 315 312 308 301 294 293 297 296
89 54 13 357 344 338 324 315 301 308 314 307 303 309 312 315 304 297 293 290 287 282
93 76 355 327 317 290 293 302 308 306 305 295 294 300 307 311 298 294 291 285 281 279
86 70 301 269 278 283 296 297 295 294 290 282 279 285 302 305 303 293 289 286 288 281